COSMOS 1275 DEB, 12732

Orbit data source: Space-Track

COSMOS 1275 DEB, 12732 is space debris in LEO originally from a launch on Thu, 04 Jun 1981 UTC launched from the Plesetsk Missile And Space Complex (PKMTR). Debris objects in space refer to the collection of defunct objects orbiting the Earth. Examples of debris include non-operational satellites, rocket bodies, and fragments generated from explosions, collisions, or faulty payload assembly.

Loading next visibility...
Identifier
12732, 1981-053BZ
Orbit
LEO
Country
Flag of CISCIS
Related business
Manufacturer
Unknown
Mission
Spacecraft
Bus & Motor
Unknown
Mass
Unknown
Launch date (UTC)
1981-06-04 (44 years ago)
Launch vehicle
Unknown
Launch site
Plesetsk Missile And Space Complex (PKMTR)
Object type
Payload
Rocket body
Debris
Shape & HBR
Unknown shape, 0.1 m
Radar Cross Section
Small (<0.1 m²)

Expand to show TLE details & history
Last TLE update: 7 hours ago

TLE from 7 hours ago
0 COSMOS 1275 DEB
1 12732U 81053BZ  25299.10078226  .00000527  00000-0  40035-3 0  9994
2 12732  82.9876 240.9022 0053492  50.7950 326.5501 13.91367419238598
Epoch: 2025-10-26T02:25Z
TLE epoch observation values (Epoch: 2025-10-26T02:25:07.587Z)
Latitude
16.85998°
Longitude
172.02388°
Altitude
893.611 km
Speed
7.423 km/s
True Right ascension
16h 12m 06s
True Declination
16° 45' 60"
Sunlit
Object was in daylight at epoch
Visualization orbit readout
Latitude
Unknown
Longitude
Unknown
Altitude
Unknown
Speed
Unknown
Apparent Right ascension
Unknown
Apparent Declination
Unknown
Sunlit
N/A
Visualization observer readout
Local Sidereal Time
05:02:49
Azimuth
Unknown
Elevation
Unknown
Doppler factor
Unknown
Orbital elements
Apogee altitude
960.011 km
Perigee altitude
881.923 km
Semi-major axis
7,299.104 km
Eccentricity
0.00535
Inclination
82.9876°
RAAN
240.9022°
Arg. of periapsis
50.795°
True anomaly
326.21033°
Mean anomaly
326.5501°
Eccentric anomaly
326.38041°
Mean motion
3.48048 °/min
Orbital period
103.43 mins
BSTAR
0.00040035
Loading maneuver chart data...
Computing Atmospheric mass density...

Documentation

Showing up to 5 results
|